Time,TemperatureF,DewpointF,PressureIn,WindDirection,WindDirectionDegrees,WindSpeedMPH,WindSpeedGustMPH,Humidity,HourlyPrecipIn,Conditions,Clouds,dailyrainin,SoftwareType,DateUTC
2013-04-05 00:02:00,44.5,27.9,30.06,NNW,330,0.0,0.0,52,0.00,,,0.00,WUHU216DAVISVP2,2013-04-05 05:02:00,
2013-04-05 00:07:00,44.3,27.8,30.06,NNW,330,0.0,0.0,52,0.00,,,0.00,WUHU216DAVISVP2,2013-04-05 05:07:00,
2013-04-05 00:12:00,43.9,28.3,30.06,NNW,330,0.0,0.0,54,0.00,,,0.00,WUHU216DAVISVP2,2013-04-05 05:12:00,
2013-04-05 00:17:00,43.1,27.6,30.06,NNW,330,0.0,0.0,54,0.00,,,0.00,WUHU216DAVISVP2,2013-04-05 05:17:00,
2013-04-05 00:22:00,43.0,29.3,30.06,NNW,330,0.0,0.0,58,0.00,,,0.00,WUHU216DAVISVP2,2013-04-05 05:22:00,
2013-04-05 00:27:00,42.5,28.8,30.06,West,274,0.0,0.0,58,0.00,,,0.00,WUHU216DAVISVP2,2013-04-05 05:27:00,
2013-04-05 00:32:00,42.3,28.2,30.06,West,275,0.0,0.0,57,0.00,,,0.00,WUHU216DAVISVP2,2013-04-05 05:32:00,
2013-04-05 00:37:00,42.2,28.1,30.06,West,274,0.0,0.0,57,0.00,,,0.00,WUHU216DAVISVP2,2013-04-05 05:37:00,
2013-04-05 00:42:00,42.1,28.4,30.06,West,275,0.0,0.0,58,0.00,,,0.00,WUHU216DAVISVP2,2013-04-05 05:42:00,
2013-04-05 00:47:00,41.6,28.0,30.06,West,274,0.0,0.0,58,0.00,,,0.00,WUHU216DAVISVP2,2013-04-05 05:47:00,
2013-04-05 00:52:00,41.4,28.2,30.06,West,275,0.0,0.0,59,0.00,,,0.00,WUHU216DAVISVP2,2013-04-05 05:52:00,
2013-04-05 00:57:00,41.1,28.3,30.06,West,275,0.0,0.0,60,0.00,,,0.00,WUHU216DAVISVP2,2013-04-05 05:57:00,
2013-04-05 01:02:00,41.1,28.3,30.06,West,275,0.0,0.0,60,0.00,,,0.00,WUHU216DAVISVP2,2013-04-05 06:02:00,
2013-04-05 01:07:00,40.7,28.4,30.06,West,274,0.0,0.0,61,0.00,,,0.00,WUHU216DAVISVP2,2013-04-05 06:07:00,
2013-04-05 01:12:00,40.3,28.8,30.06,West,274,0.0,0.0,63,0.00,,,0.00,WUHU216DAVISVP2,2013-04-05 06:12:00,
2013-04-05 01:17:00,39.8,28.7,30.07,West,275,0.0,0.0,64,0.00,,,0.00,WUHU216DAVISVP2,2013-04-05 06:17:00,
2013-04-05 01:22:00,39.6,29.6,30.07,West,275,0.0,0.0,67,0.00,,,0.00,WUHU216DAVISVP2,2013-04-05 06:22:00,
2013-04-05 01:27:00,39.5,29.5,30.07,West,275,0.0,0.0,67,0.00,,,0.00,WUHU216DAVISVP2,2013-04-05 06:27:00,
2013-04-05 01:32:00,39.4,30.2,30.07,West,275,0.0,0.0,69,0.00,,,0.00,WUHU216DAVISVP2,2013-04-05 06:32:00,
2013-04-05 01:37:00,39.1,30.2,30.07,West,275,0.0,0.0,70,0.00,,,0.00,WUHU216DAVISVP2,2013-04-05 06:37:00,
2013-04-05 01:42:00,39.0,30.0,30.07,NW,315,0.0,1.0,70,0.00,,,0.00,WUHU216DAVISVP2,2013-04-05 06:42:00,
2013-04-05 01:47:00,38.9,29.7,30.07,NW,315,0.0,1.0,69,0.00,,,0.00,WUHU216DAVISVP2,2013-04-05 06:47:00,
2013-04-05 01:52:00,38.7,30.5,30.07,NW,315,0.0,0.0,72,0.00,,,0.00,WUHU216DAVISVP2,2013-04-05 06:52:00,
2013-04-05 01:57:00,38.6,29.7,30.07,NW,315,0.0,0.0,70,0.00,,,0.00,WUHU216DAVISVP2,2013-04-05 06:57:00,
2013-04-05 02:02:00,38.6,29.0,30.07,NW,315,0.0,0.0,68,0.00,,,0.00,WUHU216DAVISVP2,2013-04-05 07:02:00,
2013-04-05 02:07:00,38.4,28.8,30.07,NW,315,0.0,0.0,68,0.00,,,0.00,WUHU216DAVISVP2,2013-04-05 07:07:00,
2013-04-05 02:12:00,38.2,28.6,30.07,NW,315,0.0,0.0,68,0.00,,,0.00,WUHU216DAVISVP2,2013-04-05 07:12:00,
2013-04-05 02:17:00,38.1,28.9,30.07,NW,315,0.0,0.0,69,0.00,,,0.00,WUHU216DAVISVP2,2013-04-05 07:17:00,
2013-04-05 02:22:00,38.5,29.6,30.07,NW,315,0.0,0.0,70,0.00,,,0.00,WUHU216DAVISVP2,2013-04-05 07:22:00,
2013-04-05 02:27:00,38.6,28.9,30.07,NW,315,0.0,0.0,68,0.00,,,0.00,WUHU216DAVISVP2,2013-04-05 07:27:00,
2013-04-05 02:32:00,38.8,29.2,30.07,NW,315,0.0,0.0,68,0.00,,,0.00,WUHU216DAVISVP2,2013-04-05 07:32:00,
2013-04-05 02:37:00,38.8,29.2,30.07,NW,315,0.0,0.0,68,0.00,,,0.00,WUHU216DAVISVP2,2013-04-05 07:37:00,
2013-04-05 02:42:00,38.4,29.2,30.07,NW,315,0.0,0.0,69,0.00,,,0.00,WUHU216DAVISVP2,2013-04-05 07:42:00,
2013-04-05 02:47:00,38.1,29.3,30.07,NW,315,0.0,0.0,70,0.00,,,0.00,WUHU216DAVISVP2,2013-04-05 07:47:00,
2013-04-05 02:52:00,38.2,29.7,30.07,NW,315,0.0,0.0,71,0.00,,,0.00,WUHU216DAVISVP2,2013-04-05 07:52:00,
2013-04-05 02:57:00,38.1,29.6,30.07,NW,315,0.0,0.0,71,0.00,,,0.00,WUHU216DAVISVP2,2013-04-05 07:57:00,
2013-04-05 03:02:00,38.3,29.8,30.07,NW,315,0.0,0.0,71,0.00,,,0.00,WUHU216DAVISVP2,2013-04-05 08:02:00,
2013-04-05 03:08:00,38.1,29.9,30.07,NW,315,0.0,0.0,72,0.00,,,0.00,WUHU216DAVISVP2,2013-04-05 08:08:00,
2013-04-05 03:13:00,38.0,30.2,30.07,NW,307,0.0,0.0,73,0.00,,,0.00,WUHU216DAVISVP2,2013-04-05 08:13:00,
2013-04-05 03:18:00,38.0,29.8,30.07,NW,307,0.0,0.0,72,0.00,,,0.00,WUHU216DAVISVP2,2013-04-05 08:18:00,
2013-04-05 03:23:00,38.3,29.8,30.07,NW,305,0.0,0.0,71,0.00,,,0.00,WUHU216DAVISVP2,2013-04-05 08:23:00,
2013-04-05 03:28:00,38.5,30.0,30.08,NW,305,0.0,0.0,71,0.00,,,0.00,WUHU216DAVISVP2,2013-04-05 08:28:00,
2013-04-05 03:33:00,38.5,30.3,30.08,NW,305,0.0,0.0,72,0.00,,,0.00,WUHU216DAVISVP2,2013-04-05 08:33:00,
2013-04-05 03:38:00,38.2,30.4,30.08,NW,305,0.0,0.0,73,0.00,,,0.00,WUHU216DAVISVP2,2013-04-05 08:38:00,
2013-04-05 03:43:00,38.1,29.9,30.08,NW,305,0.0,0.0,72,0.00,,,0.00,WUHU216DAVISVP2,2013-04-05 08:43:00,
2013-04-05 03:48:00,38.5,30.0,30.08,WNW,301,0.0,0.0,71,0.00,,,0.00,WUHU216DAVISVP2,2013-04-05 08:48:00,
2013-04-05 03:53:00,38.5,29.6,30.08,WNW,299,0.0,0.0,70,0.00,,,0.00,WUHU216DAVISVP2,2013-04-05 08:53:00,
2013-04-05 03:58:00,38.3,29.7,30.08,WNW,299,0.0,0.0,71,0.00,,,0.00,WUHU216DAVISVP2,2013-04-05 08:58:00,
2013-04-05 04:03:00,38.2,29.6,30.08,WNW,299,0.0,0.0,71,0.00,,,0.00,WUHU216DAVISVP2,2013-04-05 09:03:00,
2013-04-05 04:08:00,38.2,29.3,30.08,WNW,299,0.0,0.0,70,0.00,,,0.00,WUHU216DAVISVP2,2013-04-05 09:08:00,
2013-04-05 04:13:00,38.1,29.3,30.08,West,271,0.0,0.0,70,0.00,,,0.00,WUHU216DAVISVP2,2013-04-05 09:13:00,
2013-04-05 04:18:00,38.2,29.3,30.08,West,271,0.0,0.0,70,0.00,,,0.00,WUHU216DAVISVP2,2013-04-05 09:18:00,
2013-04-05 04:23:00,38.4,29.5,30.08,West,271,0.0,0.0,70,0.00,,,0.00,WUHU216DAVISVP2,2013-04-05 09:23:00,
2013-04-05 04:28:00,38.4,29.2,30.08,West,272,0.0,0.0,69,0.00,,,0.00,WUHU216DAVISVP2,2013-04-05 09:28:00,
2013-04-05 04:33:00,38.2,29.3,30.08,West,272,0.0,0.0,70,0.00,,,0.00,WUHU216DAVISVP2,2013-04-05 09:33:00,
2013-04-05 04:38:00,38.3,29.4,30.09,West,272,0.0,0.0,70,0.00,,,0.00,WUHU216DAVISVP2,2013-04-05 09:38:00,
2013-04-05 04:43:00,38.3,29.4,30.09,West,272,0.0,0.0,70,0.00,,,0.00,WUHU216DAVISVP2,2013-04-05 09:43:00,
2013-04-05 04:48:00,38.4,29.5,30.09,West,272,0.0,0.0,70,0.00,,,0.00,WUHU216DAVISVP2,2013-04-05 09:48:00,
2013-04-05 04:53:00,38.9,29.3,30.10,WNW,303,1.0,2.0,68,0.00,,,0.00,WUHU216DAVISVP2,2013-04-05 09:53:00,
2013-04-05 04:58:00,39.2,29.2,30.10,WNW,290,1.0,2.0,67,0.00,,,0.00,WUHU216DAVISVP2,2013-04-05 09:58:00,
2013-04-05 05:03:00,39.2,29.2,30.10,WNW,290,1.0,2.0,67,0.00,,,0.00,WUHU216DAVISVP2,2013-04-05 10:03:00,
2013-04-05 05:08:00,39.1,29.1,30.10,WNW,293,0.0,2.0,67,0.00,,,0.00,WUHU216DAVISVP2,2013-04-05 10:08:00,
2013-04-05 05:13:00,39.0,29.0,30.10,WNW,293,0.0,1.0,67,0.00,,,0.00,WUHU216DAVISVP2,2013-04-05 10:13:00,
2013-04-05 05:18:00,39.1,28.8,30.10,WNW,293,0.0,1.0,66,0.00,,,0.00,WUHU216DAVISVP2,2013-04-05 10:18:00,
2013-04-05 05:23:00,39.3,29.0,30.10,WNW,293,1.0,1.0,66,0.00,,,0.00,WUHU216DAVISVP2,2013-04-05 10:23:00,
2013-04-05 05:28:00,39.2,29.2,30.10,WNW,293,0.0,1.0,67,0.00,,,0.00,WUHU216DAVISVP2,2013-04-05 10:28:00,
2013-04-05 05:33:00,38.7,29.0,30.10,WNW,293,0.0,1.0,68,0.00,,,0.00,WUHU216DAVISVP2,2013-04-05 10:33:00,
2013-04-05 05:38:00,38.3,29.0,30.10,WNW,293,0.0,0.0,69,0.00,,,0.00,WUHU216DAVISVP2,2013-04-05 10:38:00,
2013-04-05 05:43:00,38.2,29.0,30.11,WNW,293,0.0,0.0,69,0.00,,,0.00,WUHU216DAVISVP2,2013-04-05 10:43:00,
2013-04-05 05:48:00,38.3,29.1,30.11,WNW,293,0.0,0.0,69,0.00,,,0.00,WUHU216DAVISVP2,2013-04-05 10:48:00,
2013-04-05 05:53:00,38.4,28.8,30.11,WNW,292,0.0,0.0,68,0.00,,,0.00,WUHU216DAVISVP2,2013-04-05 10:53:00,
2013-04-05 05:58:00,39.0,28.7,30.11,WNW,292,0.0,0.0,66,0.00,,,0.00,WUHU216DAVISVP2,2013-04-05 10:58:00,
2013-04-05 06:03:00,38.9,29.0,30.11,WNW,292,0.0,0.0,67,0.00,,,0.00,WUHU216DAVISVP2,2013-04-05 11:03:00,
2013-04-05 06:08:00,38.8,28.9,30.11,WNW,292,0.0,0.0,67,0.00,,,0.00,WUHU216DAVISVP2,2013-04-05 11:08:00,
2013-04-05 06:13:00,38.7,28.8,30.12,WNW,292,0.0,1.0,67,0.00,,,0.00,WUHU216DAVISVP2,2013-04-05 11:13:00,
2013-04-05 06:18:00,38.5,28.9,30.12,WNW,292,0.0,1.0,68,0.00,,,0.00,WUHU216DAVISVP2,2013-04-05 11:18:00,
2013-04-05 06:24:00,38.4,29.2,30.12,WNW,292,0.0,1.0,69,0.00,,,0.00,WUHU216DAVISVP2,2013-04-05 11:24:00,
2013-04-05 06:29:00,38.3,29.1,30.12,WNW,292,0.0,0.0,69,0.00,,,0.00,WUHU216DAVISVP2,2013-04-05 11:29:00,
2013-04-05 06:34:00,38.3,28.7,30.12,WNW,292,0.0,0.0,68,0.00,,,0.00,WUHU216DAVISVP2,2013-04-05 11:34:00,
2013-04-05 06:39:00,38.4,28.8,30.12,WNW,292,0.0,0.0,68,0.00,,,0.00,WUHU216DAVISVP2,2013-04-05 11:39:00,
2013-04-05 06:44:00,38.4,28.8,30.12,WNW,292,0.0,0.0,68,0.00,,,0.00,WUHU216DAVISVP2,2013-04-05 11:44:00,
2013-04-05 06:49:00,38.7,28.8,30.13,WNW,292,0.0,0.0,67,0.00,,,0.00,WUHU216DAVISVP2,2013-04-05 11:49:00,
2013-04-05 06:54:00,39.0,28.7,30.13,WNW,287,0.0,0.0,66,0.00,,,0.00,WUHU216DAVISVP2,2013-04-05 11:54:00,
2013-04-05 06:59:00,39.1,29.1,30.13,WNW,287,0.0,0.0,67,0.00,,,0.00,WUHU216DAVISVP2,2013-04-05 11:59:00,
2013-04-05 07:04:00,39.2,29.2,30.13,WNW,294,0.0,0.0,67,0.00,,,0.00,WUHU216DAVISVP2,2013-04-05 12:04:00,
2013-04-05 07:09:00,39.4,29.1,30.13,WNW,296,0.0,0.0,66,0.00,,,0.00,WUHU216DAVISVP2,2013-04-05 12:09:00,
2013-04-05 07:14:00,39.8,29.1,30.13,WNW,295,0.0,0.0,65,0.00,,,0.00,WUHU216DAVISVP2,2013-04-05 12:14:00,
2013-04-05 07:19:00,40.5,29.0,30.13,WNW,297,0.0,0.0,63,0.00,,,0.00,WUHU216DAVISVP2,2013-04-05 12:19:00,
2013-04-05 07:24:00,40.7,29.1,30.14,WNW,292,0.0,0.0,63,0.00,,,0.00,WUHU216DAVISVP2,2013-04-05 12:24:00,
2013-04-05 07:29:00,40.9,29.3,30.14,WNW,292,0.0,0.0,63,0.00,,,0.00,WUHU216DAVISVP2,2013-04-05 12:29:00,
2013-04-05 07:34:00,41.4,29.7,30.13,West,277,1.0,1.0,63,0.00,,,0.00,WUHU216DAVISVP2,2013-04-05 12:34:00,
2013-04-05 07:39:00,42.1,30.1,30.13,West,269,1.0,2.0,62,0.00,,,0.00,WUHU216DAVISVP2,2013-04-05 12:39:00,
2013-04-05 07:44:00,42.6,31.4,30.13,WSW,240,1.0,2.0,64,0.00,,,0.00,WUHU216DAVISVP2,2013-04-05 12:44:00,
2013-04-05 07:49:00,42.9,32.8,30.13,SW,224,0.0,2.0,67,0.00,,,0.00,WUHU216DAVISVP2,2013-04-05 12:49:00,
2013-04-05 07:54:00,43.3,33.5,30.14,SW,234,1.0,2.0,68,0.00,,,0.00,WUHU216DAVISVP2,2013-04-05 12:54:00,
2013-04-05 07:59:00,43.7,34.2,30.13,SW,219,1.0,2.0,69,0.00,,,0.00,WUHU216DAVISVP2,2013-04-05 12:59:00,
2013-04-05 08:04:00,44.1,34.7,30.14,WSW,243,1.0,2.0,69,0.00,,,0.00,WUHU216DAVISVP2,2013-04-05 13:04:00,
2013-04-05 08:09:00,44.9,34.7,30.14,West,266,1.0,2.0,67,0.00,,,0.00,WUHU216DAVISVP2,2013-04-05 13:09:00,
2013-04-05 08:14:00,45.6,34.2,30.14,NW,308,2.0,3.0,64,0.00,,,0.00,WUHU216DAVISVP2,2013-04-05 13:14:00,
2013-04-05 08:19:00,45.9,34.5,30.14,WNW,293,2.0,4.0,64,0.00,,,0.00,WUHU216DAVISVP2,2013-04-05 13:19:00,
2013-04-05 08:24:00,46.4,35.3,30.14,WNW,290,2.0,5.0,65,0.00,,,0.00,WUHU216DAVISVP2,2013-04-05 13:24:00,
2013-04-05 08:29:00,47.0,35.0,30.14,WNW,282,4.0,5.0,63,0.00,,,0.00,WUHU216DAVISVP2,2013-04-05 13:29:00,
2013-04-05 08:34:00,47.7,34.6,30.14,WNW,299,2.0,5.0,60,0.00,,,0.00,WUHU216DAVISVP2,2013-04-05 13:34:00,
2013-04-05 08:39:00,48.1,33.6,30.14,WNW,298,2.0,5.0,57,0.00,,,0.00,WUHU216DAVISVP2,2013-04-05 13:39:00,
2013-04-05 08:44:00,48.4,33.5,30.14,WNW,288,3.0,5.0,56,0.00,,,0.00,WUHU216DAVISVP2,2013-04-05 13:44:00,
2013-04-05 08:50:00,48.7,33.8,30.14,WNW,288,4.0,5.0,56,0.00,,,0.00,WUHU216DAVISVP2,2013-04-05 13:50:00,
2013-04-05 08:55:00,48.9,34.4,30.14,WNW,286,4.0,4.0,57,0.00,,,0.00,WUHU216DAVISVP2,2013-04-05 13:55:00,
2013-04-05 09:00:00,49.1,33.7,30.14,NW,319,4.0,7.0,55,0.00,,,0.00,WUHU216DAVISVP2,2013-04-05 14:00:00,
2013-04-05 09:05:00,49.3,34.8,30.14,NW,318,4.0,7.0,57,0.00,,,0.00,WUHU216DAVISVP2,2013-04-05 14:05:00,
2013-04-05 09:10:00,49.4,34.9,30.14,NW,316,6.0,6.0,57,0.00,,,0.00,WUHU216DAVISVP2,2013-04-05 14:10:00,
2013-04-05 09:15:00,49.5,35.0,30.14,NW,326,3.0,7.0,57,0.00,,,0.00,WUHU216DAVISVP2,2013-04-05 14:15:00,
2013-04-05 09:20:00,50.1,35.9,30.14,WNW,295,3.0,7.0,58,0.00,,,0.00,WUHU216DAVISVP2,2013-04-05 14:20:00,
2013-04-05 09:25:00,50.6,35.9,30.14,WNW,290,4.0,6.0,57,0.00,,,0.00,WUHU216DAVISVP2,2013-04-05 14:25:00,
2013-04-05 09:30:00,50.9,35.8,30.14,NNW,332,4.0,6.0,56,0.00,,,0.00,WUHU216DAVISVP2,2013-04-05 14:30:00,
2013-04-05 09:35:00,51.2,35.6,30.14,NW,321,4.0,7.0,55,0.00,,,0.00,WUHU216DAVISVP2,2013-04-05 14:35:00,
2013-04-05 09:40:00,51.1,36.5,30.14,NW,318,7.0,8.0,57,0.00,,,0.00,WUHU216DAVISVP2,2013-04-05 14:40:00,
2013-04-05 09:46:00,51.7,36.6,30.14,NNW,328,6.0,8.0,56,0.00,,,0.00,WUHU216DAVISVP2,2013-04-05 14:46:00,
2013-04-05 09:51:00,52.1,37.4,30.15,NW,318,4.0,7.0,57,0.00,,,0.00,WUHU216DAVISVP2,2013-04-05 14:51:00,
2013-04-05 09:56:00,52.3,36.2,30.15,NW,315,5.0,7.0,54,0.00,,,0.00,WUHU216DAVISVP2,2013-04-05 14:56:00,
2013-04-05 10:01:00,52.7,36.1,30.15,NNW,341,4.0,7.0,53,0.00,,,0.00,WUHU216DAVISVP2,2013-04-05 15:01:00,
2013-04-05 10:06:00,52.9,36.7,30.15,NW,321,4.0,6.0,54,0.00,,,0.00,WUHU216DAVISVP2,2013-04-05 15:06:00,
2013-04-05 10:11:00,53.2,36.5,30.15,NW,326,3.0,7.0,53,0.00,,,0.00,WUHU216DAVISVP2,2013-04-05 15:11:00,
2013-04-05 10:16:00,53.8,38.0,30.15,NNW,335,3.0,7.0,55,0.00,,,0.00,WUHU216DAVISVP2,2013-04-05 15:16:00,
2013-04-05 10:21:00,54.4,38.1,30.15,NW,321,5.0,8.0,54,0.00,,,0.00,WUHU216DAVISVP2,2013-04-05 15:21:00,
2013-04-05 10:27:00,54.4,37.6,30.16,NW,319,4.0,10.0,53,0.00,,,0.00,WUHU216DAVISVP2,2013-04-05 15:27:00,
2013-04-05 10:32:00,54.7,37.9,30.16,WNW,291,7.0,10.0,53,0.00,,,0.00,WUHU216DAVISVP2,2013-04-05 15:32:00,
2013-04-05 10:37:00,54.8,37.0,30.16,NW,319,8.0,9.0,51,0.00,,,0.00,WUHU216DAVISVP2,2013-04-05 15:37:00,
2013-04-05 10:42:00,54.7,36.9,30.16,NW,323,7.0,9.0,51,0.00,,,0.00,WUHU216DAVISVP2,2013-04-05 15:42:00,
2013-04-05 10:47:00,54.9,37.6,30.16,NW,323,5.0,9.0,52,0.00,,,0.00,WUHU216DAVISVP2,2013-04-05 15:47:00,
2013-04-05 10:52:00,55.2,38.4,30.16,NW,316,9.0,10.0,53,0.00,,,0.00,WUHU216DAVISVP2,2013-04-05 15:52:00,
2013-04-05 10:57:00,55.4,38.1,30.16,NW,316,8.0,11.0,52,0.00,,,0.00,WUHU216DAVISVP2,2013-04-05 15:57:00,
2013-04-05 11:02:00,55.5,38.7,30.17,NNW,341,5.0,11.0,53,0.00,,,0.00,WUHU216DAVISVP2,2013-04-05 16:02:00,
2013-04-05 11:07:00,56.4,40.0,30.17,NW,315,8.0,11.0,54,0.00,,,0.00,WUHU216DAVISVP2,2013-04-05 16:07:00,
2013-04-05 11:12:00,56.2,39.8,30.17,NW,319,8.0,11.0,54,0.00,,,0.00,WUHU216DAVISVP2,2013-04-05 16:12:00,
2013-04-05 11:17:00,56.5,40.5,30.16,NNW,327,5.0,11.0,55,0.00,,,0.00,WUHU216DAVISVP2,2013-04-05 16:17:00,
2013-04-05 11:22:00,57.0,41.1,30.16,NW,321,9.0,13.0,55,0.00,,,0.00,WUHU216DAVISVP2,2013-04-05 16:22:00,
2013-04-05 11:27:00,57.4,41.4,30.16,NNE,22,4.0,13.0,55,0.00,,,0.00,WUHU216DAVISVP2,2013-04-05 16:27:00,
2013-04-05 11:32:00,57.9,42.4,30.16,NW,325,6.0,9.0,56,0.00,,,0.00,WUHU216DAVISVP2,2013-04-05 16:32:00,
2013-04-05 11:37:00,58.4,41.9,30.16,North,352,8.0,13.0,54,0.00,,,0.00,WUHU216DAVISVP2,2013-04-05 16:37:00,
2013-04-05 11:42:00,58.7,41.2,30.16,North,4,4.0,13.0,52,0.00,,,0.00,WUHU216DAVISVP2,2013-04-05 16:42:00,
2013-04-05 11:47:00,58.7,42.2,30.16,NE,40,3.0,10.0,54,0.00,,,0.00,WUHU216DAVISVP2,2013-04-05 16:47:00,
2013-04-05 11:52:00,58.9,40.8,30.16,NNW,328,8.0,11.0,51,0.00,,,0.00,WUHU216DAVISVP2,2013-04-05 16:52:00,
2013-04-05 11:58:00,59.4,42.3,30.16,NNE,20,4.0,11.0,53,0.00,,,0.00,WUHU216DAVISVP2,2013-04-05 16:58:00,
2013-04-05 12:03:00,59.1,42.0,30.16,NNW,330,4.0,12.0,53,0.00,,,0.00,WUHU216DAVISVP2,2013-04-05 17:03:00,
2013-04-05 12:08:00,59.7,42.1,30.16,NW,326,6.0,12.0,52,0.00,,,0.00,WUHU216DAVISVP2,2013-04-05 17:08:00,
2013-04-05 12:13:00,59.4,41.3,30.16,NW,326,9.0,11.0,51,0.00,,,0.00,WUHU216DAVISVP2,2013-04-05 17:13:00,
2013-04-05 12:18:00,59.5,41.9,30.16,NW,318,11.0,12.0,52,0.00,,,0.00,WUHU216DAVISVP2,2013-04-05 17:18:00,
2013-04-05 12:23:00,59.7,42.1,30.16,NNW,341,8.0,12.0,52,0.00,,,0.00,WUHU216DAVISVP2,2013-04-05 17:23:00,
2013-04-05 12:28:00,59.8,41.1,30.16,NNW,342,10.0,13.0,50,0.00,,,0.00,WUHU216DAVISVP2,2013-04-05 17:28:00,
2013-04-05 12:33:00,60.0,41.8,30.16,NNW,333,11.0,14.0,51,0.00,,,0.00,WUHU216DAVISVP2,2013-04-05 17:33:00,
2013-04-05 12:38:00,60.2,41.0,30.16,NNW,336,13.0,14.0,49,0.00,,,0.00,WUHU216DAVISVP2,2013-04-05 17:38:00,
2013-04-05 12:43:00,60.5,41.2,30.16,NW,319,9.0,14.0,49,0.00,,,0.00,WUHU216DAVISVP2,2013-04-05 17:43:00,
2013-04-05 12:48:00,60.6,40.2,30.16,NNW,332,7.0,14.0,47,0.00,,,0.00,WUHU216DAVISVP2,2013-04-05 17:48:00,
2013-04-05 12:53:00,60.6,39.6,30.16,NNW,345,8.0,14.0,46,0.00,,,0.00,WUHU216DAVISVP2,2013-04-05 17:53:00,
2013-04-05 12:58:00,60.6,39.1,30.15,NW,319,8.0,15.0,45,0.00,,,0.00,WUHU216DAVISVP2,2013-04-05 17:58:00,
2013-04-05 13:03:00,60.7,39.2,30.15,NW,323,8.0,15.0,45,0.00,,,0.00,WUHU216DAVISVP2,2013-04-05 18:03:00,
2013-04-05 13:08:00,60.9,36.3,30.14,NNE,12,3.0,14.0,40,0.00,,,0.00,WUHU216DAVISVP2,2013-04-05 18:08:00,
2013-04-05 13:13:00,62.2,39.9,30.14,ENE,72,2.0,14.0,44,0.00,,,0.00,WUHU216DAVISVP2,2013-04-05 18:13:00,
2013-04-05 13:18:00,62.2,35.4,30.14,NNW,345,14.0,14.0,37,0.00,,,0.00,WUHU216DAVISVP2,2013-04-05 18:18:00,
2013-04-05 13:23:00,61.7,36.3,30.14,NNW,331,4.0,14.0,39,0.00,,,0.00,WUHU216DAVISVP2,2013-04-05 18:23:00,
2013-04-05 13:28:00,62.0,38.5,30.14,NNE,16,1.0,14.0,42,0.00,,,0.00,WUHU216DAVISVP2,2013-04-05 18:28:00,
2013-04-05 13:33:00,62.5,35.7,30.14,NW,316,9.0,16.0,37,0.00,,,0.00,WUHU216DAVISVP2,2013-04-05 18:33:00,
2013-04-05 13:38:00,62.0,35.2,30.14,NW,309,4.0,16.0,37,0.00,,,0.00,WUHU216DAVISVP2,2013-04-05 18:38:00,
2013-04-05 13:43:00,62.5,39.0,30.13,NE,51,5.0,10.0,42,0.00,,,0.00,WUHU216DAVISVP2,2013-04-05 18:43:00,
2013-04-05 13:48:00,62.1,36.2,30.13,West,280,2.0,10.0,38,0.00,,,0.00,WUHU216DAVISVP2,2013-04-05 18:48:00,
2013-04-05 13:53:00,62.2,34.9,30.12,NNE,13,5.0,10.0,36,0.00,,,0.00,WUHU216DAVISVP2,2013-04-05 18:53:00,
2013-04-05 13:58:00,62.5,32.2,30.12,NNW,348,5.0,11.0,32,0.00,,,0.00,WUHU216DAVISVP2,2013-04-05 18:58:00,
2013-04-05 14:03:00,62.6,30.5,30.12,ENE,64,4.0,12.0,30,0.00,,,0.00,WUHU216DAVISVP2,2013-04-05 19:03:00,
2013-04-05 14:08:00,63.5,31.3,30.12,NNW,341,5.0,12.0,30,0.00,,,0.00,WUHU216DAVISVP2,2013-04-05 19:08:00,
2013-04-05 14:13:00,62.7,26.2,30.12,NNW,328,6.0,11.0,25,0.00,,,0.00,WUHU216DAVISVP2,2013-04-05 19:13:00,
2013-04-05 14:18:00,62.6,31.3,30.12,WNW,300,2.0,11.0,31,0.00,,,0.00,WUHU216DAVISVP2,2013-04-05 19:18:00,
2013-04-05 14:23:00,62.8,31.5,30.12,North,11,6.0,12.0,31,0.00,,,0.00,WUHU216DAVISVP2,2013-04-05 19:23:00,
2013-04-05 14:28:00,62.6,28.8,30.12,NW,320,7.0,12.0,28,0.00,,,0.00,WUHU216DAVISVP2,2013-04-05 19:28:00,
2013-04-05 14:33:00,63.3,33.5,30.11,NNW,336,6.0,10.0,33,0.00,,,0.00,WUHU216DAVISVP2,2013-04-05 19:33:00,
2013-04-05 14:38:00,63.6,33.8,30.11,NNW,344,10.0,10.0,33,0.00,,,0.00,WUHU216DAVISVP2,2013-04-05 19:38:00,
2013-04-05 14:43:00,63.4,32.0,30.11,NNW,335,10.0,12.0,31,0.00,,,0.00,WUHU216DAVISVP2,2013-04-05 19:43:00,
2013-04-05 14:48:00,63.2,33.4,30.11,NNW,337,9.0,12.0,33,0.00,,,0.00,WUHU216DAVISVP2,2013-04-05 19:48:00,
2013-04-05 14:53:00,63.1,34.1,30.11,NW,316,8.0,11.0,34,0.00,,,0.00,WUHU216DAVISVP2,2013-04-05 19:53:00,
2013-04-05 14:58:00,62.8,31.5,30.11,NNW,335,6.0,11.0,31,0.00,,,0.00,WUHU216DAVISVP2,2013-04-05 19:58:00,
2013-04-05 15:03:00,63.4,35.1,30.10,North,356,3.0,11.0,35,0.00,,,0.00,WUHU216DAVISVP2,2013-04-05 20:03:00,
2013-04-05 15:08:00,63.2,33.4,30.10,NW,326,7.0,10.0,33,0.00,,,0.00,WUHU216DAVISVP2,2013-04-05 20:08:00,
2013-04-05 15:13:00,63.6,31.4,30.10,NW,314,5.0,11.0,30,0.00,,,0.00,WUHU216DAVISVP2,2013-04-05 20:13:00,
2013-04-05 15:18:00,63.6,32.2,30.10,NW,316,2.0,11.0,31,0.00,,,0.00,WUHU216DAVISVP2,2013-04-05 20:18:00,
2013-04-05 15:23:00,63.9,31.6,30.10,NW,312,11.0,11.0,30,0.00,,,0.00,WUHU216DAVISVP2,2013-04-05 20:23:00,
2013-04-05 15:28:00,63.3,32.7,30.10,WNW,297,4.0,11.0,32,0.00,,,0.00,WUHU216DAVISVP2,2013-04-05 20:28:00,
2013-04-05 15:33:00,63.5,34.4,30.10,NW,314,2.0,10.0,34,0.00,,,0.00,WUHU216DAVISVP2,2013-04-05 20:33:00,
2013-04-05 15:39:00,64.2,31.9,30.10,East,81,2.0,9.0,30,0.00,,,0.00,WUHU216DAVISVP2,2013-04-05 20:39:00,
2013-04-05 15:44:00,64.1,34.2,30.09,East,88,3.0,9.0,33,0.00,,,0.00,WUHU216DAVISVP2,2013-04-05 20:44:00,
2013-04-05 15:49:00,63.7,30.6,30.09,NNW,333,4.0,9.0,29,0.00,,,0.00,WUHU216DAVISVP2,2013-04-05 20:49:00,
2013-04-05 15:54:00,63.7,35.3,30.10,NW,318,3.0,9.0,35,0.00,,,0.00,WUHU216DAVISVP2,2013-04-05 20:54:00,
2013-04-05 15:59:00,64.0,34.1,30.09,NNW,331,8.0,9.0,33,0.00,,,0.00,WUHU216DAVISVP2,2013-04-05 20:59:00,
2013-04-05 16:04:00,64.0,34.1,30.09,NNW,347,2.0,9.0,33,0.00,,,0.00,WUHU216DAVISVP2,2013-04-05 21:04:00,
2013-04-05 16:09:00,64.7,34.7,30.09,NNE,15,2.0,6.0,33,0.00,,,0.00,WUHU216DAVISVP2,2013-04-05 21:09:00,
2013-04-05 16:14:00,64.9,34.1,30.09,NNW,342,2.0,7.0,32,0.00,,,0.00,WUHU216DAVISVP2,2013-04-05 21:14:00,
2013-04-05 16:19:00,64.5,32.2,30.09,NW,323,5.0,8.0,30,0.00,,,0.00,WUHU216DAVISVP2,2013-04-05 21:19:00,
2013-04-05 16:24:00,64.6,34.6,30.09,NNW,335,4.0,8.0,33,0.00,,,0.00,WUHU216DAVISVP2,2013-04-05 21:24:00,
2013-04-05 16:29:00,64.1,33.4,30.09,NE,55,4.0,9.0,32,0.00,,,0.00,WUHU216DAVISVP2,2013-04-05 21:29:00,
2013-04-05 16:34:00,63.9,33.2,30.09,North,357,5.0,9.0,32,0.00,,,0.00,WUHU216DAVISVP2,2013-04-05 21:34:00,
2013-04-05 16:39:00,63.9,33.2,30.09,NNW,345,2.0,9.0,32,0.00,,,0.00,WUHU216DAVISVP2,2013-04-05 21:39:00,
2013-04-05 16:44:00,64.4,32.9,30.09,ENE,58,0.0,9.0,31,0.00,,,0.00,WUHU216DAVISVP2,2013-04-05 21:44:00,
2013-04-05 16:50:00,64.5,33.8,30.09,East,82,4.0,7.0,32,0.00,,,0.00,WUHU216DAVISVP2,2013-04-05 21:50:00,
2013-04-05 16:55:00,64.2,35.0,30.09,NNW,342,3.0,9.0,34,0.00,,,0.00,WUHU216DAVISVP2,2013-04-05 21:55:00,
2013-04-05 17:00:00,64.3,35.9,30.09,NNW,333,4.0,9.0,35,0.00,,,0.00,WUHU216DAVISVP2,2013-04-05 22:00:00,
2013-04-05 17:05:00,64.4,34.5,30.09,NE,51,0.0,7.0,33,0.00,,,0.00,WUHU216DAVISVP2,2013-04-05 22:05:00,
2013-04-05 17:10:00,64.7,33.9,30.09,NE,55,3.0,8.0,32,0.00,,,0.00,WUHU216DAVISVP2,2013-04-05 22:10:00,
2013-04-05 17:15:00,64.5,34.0,30.09,NE,46,2.0,8.0,32,0.00,,,0.00,WUHU216DAVISVP2,2013-04-05 22:15:00,
2013-04-05 17:20:00,64.1,32.8,30.09,NE,41,1.0,8.0,31,0.00,,,0.00,WUHU216DAVISVP2,2013-04-05 22:20:00,
2013-04-05 17:25:00,64.1,34.2,30.09,ENE,71,1.0,4.0,33,0.00,,,0.00,WUHU216DAVISVP2,2013-04-05 22:25:00,
2013-04-05 17:30:00,64.1,33.4,30.09,NNW,344,1.0,3.0,32,0.00,,,0.00,WUHU216DAVISVP2,2013-04-05 22:30:00,
2013-04-05 17:35:00,63.7,34.6,30.09,NW,319,6.0,8.0,34,0.00,,,0.00,WUHU216DAVISVP2,2013-04-05 22:35:00,
2013-04-05 17:40:00,63.2,32.6,30.09,NW,313,5.0,8.0,32,0.00,,,0.00,WUHU216DAVISVP2,2013-04-05 22:40:00,
2013-04-05 17:45:00,63.3,33.5,30.09,ENE,70,2.0,8.0,33,0.00,,,0.00,WUHU216DAVISVP2,2013-04-05 22:45:00,
2013-04-05 17:50:00,63.5,33.7,30.09,NNW,341,2.0,7.0,33,0.00,,,0.00,WUHU216DAVISVP2,2013-04-05 22:50:00,
2013-04-05 17:55:00,63.4,37.2,30.09,North,357,2.0,6.0,38,0.00,,,0.00,WUHU216DAVISVP2,2013-04-05 22:55:00,
2013-04-05 18:00:00,63.6,36.7,30.09,NNW,342,4.0,6.0,37,0.00,,,0.00,WUHU216DAVISVP2,2013-04-05 23:00:00,
2013-04-05 18:05:00,63.6,34.5,30.09,ENE,59,2.0,5.0,34,0.00,,,0.00,WUHU216DAVISVP2,2013-04-05 23:05:00,
2013-04-05 18:10:00,63.5,34.4,30.09,NNW,347,3.0,7.0,34,0.00,,,0.00,WUHU216DAVISVP2,2013-04-05 23:10:00,
2013-04-05 18:15:00,63.2,34.1,30.10,NNW,336,6.0,8.0,34,0.00,,,0.00,WUHU216DAVISVP2,2013-04-05 23:15:00,
2013-04-05 18:20:00,63.2,33.4,30.10,North,352,3.0,8.0,33,0.00,,,0.00,WUHU216DAVISVP2,2013-04-05 23:20:00,
2013-04-05 18:25:00,63.2,34.9,30.09,NE,48,1.0,6.0,35,0.00,,,0.00,WUHU216DAVISVP2,2013-04-05 23:25:00,
2013-04-05 18:30:00,63.2,34.9,30.10,NW,316,0.0,4.0,35,0.00,,,0.00,WUHU216DAVISVP2,2013-04-05 23:30:00,
2013-04-05 18:35:00,62.9,36.0,30.09,North,352,3.0,5.0,37,0.00,,,0.00,WUHU216DAVISVP2,2013-04-05 23:35:00,
2013-04-05 18:40:00,62.2,33.3,30.09,NE,53,3.0,5.0,34,0.00,,,0.00,WUHU216DAVISVP2,2013-04-05 23:40:00,
2013-04-05 18:45:00,61.6,34.9,30.09,North,8,1.0,4.0,37,0.00,,,0.00,WUHU216DAVISVP2,2013-04-05 23:45:00,
2013-04-05 18:50:00,61.2,34.0,30.09,NNE,20,0.0,2.0,36,0.00,,,0.00,WUHU216DAVISVP2,2013-04-05 23:50:00,
2013-04-05 18:55:00,60.8,34.8,30.09,NNE,20,0.0,1.0,38,0.00,,,0.00,WUHU216DAVISVP2,2013-04-05 23:55:00,
2013-04-05 19:00:00,60.3,34.4,30.09,NNE,20,0.0,1.0,38,0.00,,,0.00,WUHU216DAVISVP2,2013-04-06 00:00:00,
2013-04-05 19:05:00,59.8,34.6,30.09,NNE,20,0.0,0.0,39,0.00,,,0.00,WUHU216DAVISVP2,2013-04-06 00:05:00,
2013-04-05 19:10:00,59.2,34.7,30.09,NNE,20,0.0,0.0,40,0.00,,,0.00,WUHU216DAVISVP2,2013-04-06 00:10:00,
2013-04-05 19:15:00,58.6,36.6,30.09,NNE,20,0.0,0.0,44,0.00,,,0.00,WUHU216DAVISVP2,2013-04-06 00:15:00,
2013-04-05 19:20:00,57.9,38.3,30.09,NNE,20,0.0,0.0,48,0.00,,,0.00,WUHU216DAVISVP2,2013-04-06 00:20:00,
2013-04-05 19:25:00,57.3,37.7,30.09,NNE,20,0.0,0.0,48,0.00,,,0.00,WUHU216DAVISVP2,2013-04-06 00:25:00,
2013-04-05 19:30:00,56.6,38.7,30.09,NNE,20,0.0,0.0,51,0.00,,,0.00,WUHU216DAVISVP2,2013-04-06 00:30:00,
2013-04-05 19:35:00,56.7,37.7,30.09,NNE,20,0.0,0.0,49,0.00,,,0.00,WUHU216DAVISVP2,2013-04-06 00:35:00,
2013-04-05 19:40:00,56.7,34.3,30.09,NNE,20,0.0,1.0,43,0.00,,,0.00,WUHU216DAVISVP2,2013-04-06 00:40:00,
2013-04-05 19:45:00,56.6,33.6,30.09,NNE,20,0.0,1.0,42,0.00,,,0.00,WUHU216DAVISVP2,2013-04-06 00:45:00,
2013-04-05 19:50:00,56.6,34.3,30.09,NNE,20,0.0,0.0,43,0.00,,,0.00,WUHU216DAVISVP2,2013-04-06 00:50:00,
2013-04-05 19:57:00,56.4,35.3,30.09,NNE,20,0.0,0.0,45,0.00,,,0.00,WUHU216DAVISVP2,2013-04-06 00:57:00,
2013-04-05 20:01:00,56.0,34.9,30.09,NNE,20,0.0,0.0,45,0.00,,,0.00,WUHU216DAVISVP2,2013-04-06 01:01:00,
2013-04-05 20:06:00,55.5,37.1,30.09,NNE,20,0.0,0.0,50,0.00,,,0.00,WUHU216DAVISVP2,2013-04-06 01:06:00,
2013-04-05 20:11:00,55.0,36.7,30.10,NNE,20,0.0,0.0,50,0.00,,,0.00,WUHU216DAVISVP2,2013-04-06 01:11:00,
2013-04-05 20:17:00,54.5,38.7,30.10,NNE,20,0.0,0.0,55,0.00,,,0.00,WUHU216DAVISVP2,2013-04-06 01:17:00,
2013-04-05 20:22:00,54.5,35.7,30.10,NNE,20,0.0,0.0,49,0.00,,,0.00,WUHU216DAVISVP2,2013-04-06 01:22:00,
2013-04-05 20:27:00,54.4,35.1,30.10,NNE,20,0.0,0.0,48,0.00,,,0.00,WUHU216DAVISVP2,2013-04-06 01:27:00,
2013-04-05 20:32:00,54.3,35.0,30.10,NNE,20,0.0,0.0,48,0.00,,,0.00,WUHU216DAVISVP2,2013-04-06 01:32:00,
2013-04-05 20:37:00,54.1,34.3,30.10,NNE,29,0.0,0.0,47,0.00,,,0.00,WUHU216DAVISVP2,2013-04-06 01:37:00,
2013-04-05 20:42:00,54.1,34.8,30.10,NNE,29,0.0,0.0,48,0.00,,,0.00,WUHU216DAVISVP2,2013-04-06 01:42:00,
2013-04-05 20:47:00,53.7,35.5,30.10,ENE,63,1.0,1.0,50,0.00,,,0.00,WUHU216DAVISVP2,2013-04-06 01:47:00,
2013-04-05 20:52:00,53.6,35.9,30.10,ENE,77,1.0,2.0,51,0.00,,,0.00,WUHU216DAVISVP2,2013-04-06 01:52:00,
2013-04-05 20:58:00,53.8,35.6,30.10,ENE,68,2.0,3.0,50,0.00,,,0.00,WUHU216DAVISVP2,2013-04-06 01:58:00,
2013-04-05 21:03:00,53.9,35.7,30.10,East,79,2.0,3.0,50,0.00,,,0.00,WUHU216DAVISVP2,2013-04-06 02:03:00,
2013-04-05 21:08:00,54.5,35.7,30.10,ENE,69,2.0,3.0,49,0.00,,,0.00,WUHU216DAVISVP2,2013-04-06 02:08:00,
2013-04-05 21:13:00,54.4,35.6,30.10,ENE,67,2.0,3.0,49,0.00,,,0.00,WUHU216DAVISVP2,2013-04-06 02:13:00,
2013-04-05 21:18:00,54.5,35.7,30.10,ENE,75,3.0,4.0,49,0.00,,,0.00,WUHU216DAVISVP2,2013-04-06 02:18:00,
2013-04-05 21:23:00,53.7,36.0,30.10,ENE,66,3.0,4.0,51,0.00,,,0.00,WUHU216DAVISVP2,2013-04-06 02:23:00,
2013-04-05 21:28:00,53.6,35.4,30.10,ENE,61,3.0,4.0,50,0.00,,,0.00,WUHU216DAVISVP2,2013-04-06 02:28:00,
2013-04-05 21:33:00,54.2,35.9,30.10,ENE,66,3.0,4.0,50,0.00,,,0.00,WUHU216DAVISVP2,2013-04-06 02:33:00,
2013-04-05 21:38:00,54.7,35.9,30.10,ENE,62,3.0,5.0,49,0.00,,,0.00,WUHU216DAVISVP2,2013-04-06 02:38:00,
2013-04-05 21:43:00,54.8,36.5,30.10,NE,56,4.0,5.0,50,0.00,,,0.00,WUHU216DAVISVP2,2013-04-06 02:43:00,
2013-04-05 21:48:00,54.6,35.8,30.10,ENE,65,3.0,5.0,49,0.00,,,0.00,WUHU216DAVISVP2,2013-04-06 02:48:00,
2013-04-05 21:53:00,54.6,36.3,30.10,ENE,76,4.0,6.0,50,0.00,,,0.00,WUHU216DAVISVP2,2013-04-06 02:53:00,
2013-04-05 21:58:00,55.0,35.7,30.10,ENE,68,6.0,8.0,48,0.00,,,0.00,WUHU216DAVISVP2,2013-04-06 02:58:00,
2013-04-05 22:03:00,55.3,35.9,30.10,ENE,70,5.0,8.0,48,0.00,,,0.00,WUHU216DAVISVP2,2013-04-06 03:03:00,
2013-04-05 22:08:00,55.4,36.0,30.10,ENE,63,8.0,10.0,48,0.00,,,0.00,WUHU216DAVISVP2,2013-04-06 03:08:00,
2013-04-05 22:13:00,55.3,35.9,30.09,ENE,64,5.0,10.0,48,0.00,,,0.00,WUHU216DAVISVP2,2013-04-06 03:13:00,
2013-04-05 22:18:00,55.1,35.7,30.09,ENE,58,6.0,9.0,48,0.00,,,0.00,WUHU216DAVISVP2,2013-04-06 03:18:00,
2013-04-05 22:23:00,54.9,35.5,30.09,ENE,68,4.0,8.0,48,0.00,,,0.00,WUHU216DAVISVP2,2013-04-06 03:23:00,
2013-04-05 22:28:00,55.0,35.6,30.09,ENE,76,3.0,6.0,48,0.00,,,0.00,WUHU216DAVISVP2,2013-04-06 03:28:00,
2013-04-05 22:33:00,54.7,35.3,30.09,ENE,72,0.0,5.0,48,0.00,,,0.00,WUHU216DAVISVP2,2013-04-06 03:33:00,
2013-04-05 22:38:00,54.5,35.2,30.09,ESE,102,2.0,4.0,48,0.00,,,0.00,WUHU216DAVISVP2,2013-04-06 03:38:00,
2013-04-05 22:43:00,54.4,35.6,30.09,East,83,2.0,3.0,49,0.00,,,0.00,WUHU216DAVISVP2,2013-04-06 03:43:00,
2013-04-05 22:48:00,54.2,34.9,30.09,East,100,2.0,3.0,48,0.00,,,0.00,WUHU216DAVISVP2,2013-04-06 03:48:00,
2013-04-05 22:53:00,53.9,35.7,30.09,SE,135,0.0,3.0,50,0.00,,,0.00,WUHU216DAVISVP2,2013-04-06 03:53:00,
2013-04-05 22:58:00,53.5,35.3,30.09,East,98,0.0,2.0,50,0.00,,,0.00,WUHU216DAVISVP2,2013-04-06 03:58:00,
2013-04-05 23:00:00,53.3,35.1,30.09,East,98,0.0,2.0,50,0.00,,,0.00,WUHU216DAVISVP2,2013-04-06 04:00:00,
2013-04-05 23:05:00,53.2,35.5,30.09,ESE,119,1.0,3.0,51,0.00,,,0.00,WUHU216DAVISVP2,2013-04-06 04:05:00,
2013-04-05 23:10:00,53.3,35.6,30.09,SE,131,0.0,3.0,51,0.00,,,0.00,WUHU216DAVISVP2,2013-04-06 04:10:00,
2013-04-05 23:15:00,53.1,35.4,30.09,SE,136,0.0,3.0,51,0.00,,,0.00,WUHU216DAVISVP2,2013-04-06 04:15:00,
2013-04-05 23:20:00,52.8,35.7,30.09,SE,139,1.0,1.0,52,0.00,,,0.00,WUHU216DAVISVP2,2013-04-06 04:20:00,
2013-04-05 23:25:00,52.6,35.5,30.09,SE,137,0.0,1.0,52,0.00,,,0.00,WUHU216DAVISVP2,2013-04-06 04:25:00,
2013-04-05 23:30:00,52.5,35.9,30.09,ESE,123,1.0,2.0,53,0.00,,,0.00,WUHU216DAVISVP2,2013-04-06 04:30:00,
2013-04-05 23:36:00,52.6,36.0,30.09,ESE,122,0.0,2.0,53,0.00,,,0.00,WUHU216DAVISVP2,2013-04-06 04:36:00,
2013-04-05 23:41:00,52.3,35.7,30.09,SE,130,2.0,2.0,53,0.00,,,0.00,WUHU216DAVISVP2,2013-04-06 04:41:00,
2013-04-05 23:46:00,52.4,35.8,30.09,ESE,110,1.0,3.0,53,0.00,,,0.00,WUHU216DAVISVP2,2013-04-06 04:46:00,
2013-04-05 23:50:00,52.5,35.9,30.09,ESE,117,2.0,4.0,53,0.00,,,0.00,WUHU216DAVISVP2,2013-04-06 04:50:00,
2013-04-05 23:55:00,52.5,35.9,30.08,East,97,2.0,4.0,53,0.00,,,0.00,WUHU216DAVISVP2,2013-04-06 04:55:00,